[[{"header":{"parameterUnit":"m.s-1","parameterCategory":1,"la1":30.2991,"la2":30.254,"lo1":-89.0895,"lo2":-89.0444,"dy":0.0017,"dx":0.0017,"nx":28,"ny":28,"refTime":"2024-07-29T09:00:00:Z","depth":0,"parameterNumber":2,"parameterNumberName":"U-component_of_WINDS"},"data":[0,0,0,0,0,0,0,0,0,0,0,0,0,0,0,0,0,0,0,0,0,0,0,0,0,0,0,0,0,0,0,0,0,0,0,0,0,0,0,0,0,0,0,0,0,0,0,0,0,0,0,0,0,0,0,0,0,0,3.8711,3.8713,0,3.8878,3.888,3.8882,3.8848,3.8845,3.8842,3.8839,3.9013,3.902,3.9027,0,0,0,0,0,0,0,0,0,0,0,0,0,3.8365,3.8372,3.8711,3.8713,3.8715,3.8878,3.888,3.8883,3.8848,3.8845,3.8841,3.8837,3.901,3.9019,3.9028,0,0,0,0,0,0,0,0,0,0,0,0,0,3.8522,3.8374,3.8711,3.8718,3.872,3.8878,3.888,3.8883,3.8849,3.8845,3.884,3.8836,3.9007,3.9018,3.9029,3.9191,0,0,3.9064,3.9069,0,0,0,0,0,0,0,0,3.8513,3.8535,3.8715,3.8718,3.872,3.8837,3.8822,3.8987,3.885,3.88,3.8839,3.8833,3.8958,3.8973,3.9015,3.9199,3.9207,3.9065,3.9071,3.9076,3.9079,0,0,0,0,0,0,0,3.8503,3.8528,3.8777,3.8717,3.8721,3.8714,3.8731,3.8853,3.8903,3.8804,3.8802,3.8822,3.8959,3.9004,3.9019,3.9209,3.9064,3.9074,3.9081,3.9086,3.9536,3.9541,0,0,0,0,0,0,3.8489,3.8519,3.8772,3.8782,3.8603,3.8723,3.8743,3.8805,3.8902,3.8912,3.8826,3.882,3.8987,3.9006,3.9025,3.9221,3.9076,3.9087,3.9093,3.9531,3.9537,3.9543,0,0,0,0,0,0,3.8481,3.8512,3.8765,3.865,3.8682,3.8734,3.8804,3.881,3.8855,3.8918,3.8927,3.8863,3.8984,3.9009,3.915,3.9227,3.9092,3.9102,3.9525,3.9533,3.954,3.9615,0,0,0,0,0,0,3.8472,3.8509,3.8571,3.8652,3.8688,3.8887,3.8809,3.8817,3.8875,3.8868,3.8955,3.8965,3.8982,3.9133,3.9161,3.924,3.9111,3.9518,3.9528,3.9538,3.9606,3.9625,3.9641,0,0,0,0,0,3.8459,3.8586,3.8574,3.8605,3.8766,3.8892,3.8913,3.8929,3.8881,3.8944,3.8984,3.8962,3.9214,3.9148,3.9179,3.9262,3.9513,3.9525,3.9537,3.9599,3.9621,3.964,0,0,0,0,0,0,3.8513,3.8596,3.8584,3.874,3.8809,3.8886,3.8965,3.8953,3.9038,3.9028,3.9046,3.9066,3.921,3.925,3.9176,3.9425,3.9357,3.9375,3.9393,3.9415,3.9432,3.942,3.912,0,0,0,0,0,3.8543,3.8637,3.8705,3.8836,3.8871,3.8913,3.8968,3.8975,3.9047,3.9077,3.9127,3.9199,3.9294,3.9357,3.9448,3.9612,3.9631,3.9684,3.9701,3.9715,3.9731,3.9822,3.9847,3.9581,3.9581,3.9581,0,0,3.8606,3.8663,3.8721,3.8849,3.8903,3.9001,3.8937,3.9044,3.9117,3.9093,3.9229,3.9269,3.9351,3.9504,3.9574,3.9542,3.9809,3.973,3.9741,3.975,3.9837,3.9862,3.9884,3.9589,3.9588,3.9587,0,0,3.8771,3.8823,3.8938,3.8994,3.9076,3.9103,3.913,3.9209,3.9235,3.9372,3.9356,3.9444,3.9607,3.9666,3.9717,3.9905,3.9889,3.9934,4.0025,4.0113,4.0134,4.0152,4.022,4.0244,3.995,3.995,3.995,0,3.8839,3.8985,3.8999,3.9108,3.9165,3.9146,3.9264,3.9317,3.9426,3.9466,3.9428,3.9633,3.9687,3.9854,3.99,3.9942,3.9975,3.9925,4.0129,4.0148,4.0166,4.0231,4.0256,3.9955,3.9955,3.9954,3.9954,0,3.9065,3.9167,3.9251,3.9355,3.9421,3.9534,3.9566,3.9632,3.9633,3.9664,3.9804,3.9867,3.9971,4.0012,4.0014,4.018,4.0157,4.0124,4.0057,4.0196,4.0257,4.0282,3.9963,3.9961,3.9959,3.9958,0,0,3.9269,3.938,3.941,3.9458,3.9547,3.9627,3.9739,3.984,3.9896,3.9972,4.0067,4.0206,4.0176,4.0235,4.0244,4.0321,4.0467,4.0278,4.0281,4.0312,4.0654,4.0679,4.0708,4.0456,4.0461,4.0464,4.0648,0,3.9443,3.9639,3.9656,3.9833,3.9928,3.9912,4.001,4.0076,4.0108,4.0194,4.023,4.0328,4.0281,4.0316,4.0392,4.0433,4.0536,4.042,4.0546,4.055,4.0526,4.074,4.0766,4.0936,4.0672,4.0676,4.0679,0,3.9672,3.9754,3.994,4.0017,4.0058,4.0145,4.0239,4.0321,4.0397,4.0415,4.048,4.0479,4.0595,4.0522,4.0684,4.0605,4.0657,4.0685,4.0692,4.0705,4.0623,4.0759,4.099,4.1016,4.0716,4.0713,4.0711,0,3.9803,3.996,4.0092,4.0133,4.0226,4.0288,4.0329,4.04,4.046,4.0542,4.0581,4.0677,4.0729,4.0804,4.0828,4.0773,4.0989,4.0919,4.1008,4.1008,4.1055,4.1052,4.1299,4.1088,4.1088,4.1087,4.1087,0,3.9996,4.0111,4.0152,4.0233,4.0362,4.038,4.0507,4.0546,4.0609,4.0698,4.069,4.0775,4.0802,4.0891,4.0911,4.1043,4.1066,4.1085,4.1089,4.1086,4.1084,4.1121,4.111,4.1094,4.1092,4.1091,4.109,0,4.0165,4.0196,4.0339,4.0415,4.0437,4.0529,4.0594,4.0673,4.0703,4.0817,4.0844,4.0893,4.0997,4.1029,4.1156,4.1169,4.1323,4.1316,4.1297,4.1298,4.1386,4.1378,4.1667,4.1706,4.1468,4.1471,4.1472,0,4.0286,4.0374,4.0459,4.0518,4.0562,4.0657,4.0718,4.0739,4.0803,4.0895,4.0963,4.1067,4.115,4.1319,4.1366,4.1463,4.1459,4.1553,4.1473,4.1468,4.1461,4.1456,4.1465,4.1568,4.1571,4.1573,4.1575,0,4.0499,4.051,4.0597,4.0691,4.0763,4.0838,4.091,4.0959,4.099,4.1063,4.1169,4.1234,4.1363,4.1466,4.1565,4.1609,4.1598,4.1599,4.1625,4.1624,4.1609,4.1619,4.1339,4.1593,4.1591,4.159,4.1589,4.1588,4.0648,4.0726,4.0798,4.0896,4.0952,4.1019,4.1097,4.1137,4.1226,4.1332,4.1339,4.1455,4.1528,4.1659,4.1708,4.18,4.1772,4.181,4.182,4.1829,4.1836,4.1594,4.1818,4.1817,4.1817,4.1816,4.1816,0,4.0861,4.0906,4.0996,4.1096,4.1174,4.1155,4.1234,4.13,4.1402,4.1471,4.1553,4.1676,4.1776,4.1831,4.1931,4.1994,4.1991,4.2019,4.2015,4.2026,4.1855,4.1822,4.202,4.202,4.2019,4.2019,4.2019,4.2019,4.0981,4.1112,4.1131,4.129,4.1335,4.1448,4.1494,4.1557,4.1612,4.1749,4.1832,4.1866,4.193,4.2035,4.2126,4.214,4.2177,4.2209,4.2219,4.2059,4.2038,4.2018,4.1988,4.2216,4.2217,4.2383,4.2385,4.2386]},{"header":{"parameterUnit":"m.s-1","parameterCategory":1,"la1":30.2991,"la2":30.254,"lo1":-89.0895,"lo2":-89.0444,"dy":0.0017,"dx":0.0017,"nx":28,"ny":28,"refTime":"2024-07-29T09:00:00:Z","depth":0,"parameterNumber":3,"parameterNumberName":"V-component_of_WINDS"},"data":[0,0,0,0,0,0,0,0,0,0,0,0,0,0,0,0,0,0,0,0,0,0,0,0,0,0,0,0,0,0,0,0,0,0,0,0,0,0,0,0,0,0,0,0,0,0,0,0,0,0,0,0,0,0,0,0,0,0,-1.5838,-1.5839,0,-1.5903,-1.5903,-1.5904,-1.5908,-1.5908,-1.5907,-1.5906,-1.5972,-1.5974,-1.5977,0,0,0,0,0,0,0,0,0,0,0,0,0,-1.5719,-1.5721,-1.5838,-1.5839,-1.584,-1.5902,-1.5903,-1.5904,-1.5908,-1.5908,-1.5907,-1.5906,-1.5971,-1.5974,-1.5977,0,0,0,0,0,0,0,0,0,0,0,0,0,-1.5776,-1.5721,-1.5838,-1.5849,-1.5851,-1.5902,-1.5903,-1.5905,-1.5909,-1.5907,-1.5906,-1.5905,-1.597,-1.5974,-1.5977,-1.6022,0,0,-1.5988,-1.599,0,0,0,0,0,0,0,0,-1.5772,-1.578,-1.5847,-1.5849,-1.5851,-1.5896,-1.5885,-1.5944,-1.5909,-1.5887,-1.5906,-1.5905,-1.5948,-1.5953,-1.5968,-1.6025,-1.6028,-1.5989,-1.5991,-1.5993,-1.5994,0,0,0,0,0,0,0,-1.5768,-1.5777,-1.5864,-1.5848,-1.585,-1.5851,-1.5858,-1.5896,-1.5922,-1.5889,-1.5889,-1.5897,-1.5948,-1.5964,-1.5969,-1.6028,-1.5989,-1.5992,-1.5994,-1.5996,-1.6126,-1.6127,0,0,0,0,0,0,-1.5762,-1.5774,-1.5862,-1.5866,-1.5808,-1.5854,-1.5862,-1.5883,-1.5922,-1.5927,-1.5897,-1.5897,-1.5958,-1.5965,-1.5971,-1.6026,-1.5993,-1.5996,-1.5998,-1.6124,-1.6126,-1.6127,0,0,0,0,0,0,-1.576,-1.577,-1.5859,-1.582,-1.5831,-1.5858,-1.5881,-1.5885,-1.59,-1.5929,-1.5933,-1.5909,-1.5958,-1.5966,-1.6009,-1.6028,-1.5998,-1.6001,-1.6123,-1.6125,-1.6127,-1.6135,0,0,0,0,0,0,-1.5756,-1.5769,-1.5786,-1.582,-1.5833,-1.5896,-1.5882,-1.5887,-1.5906,-1.5906,-1.594,-1.5945,-1.5958,-1.6004,-1.6013,-1.6033,-1.6004,-1.6121,-1.6124,-1.6126,-1.6133,-1.6137,-1.614,0,0,0,0,0,-1.5752,-1.5786,-1.5787,-1.5797,-1.5855,-1.5897,-1.5904,-1.5918,-1.5908,-1.5925,-1.5944,-1.5944,-1.6025,-1.6008,-1.6018,-1.604,-1.612,-1.6123,-1.6126,-1.6132,-1.6136,-1.614,0,0,0,0,0,0,-1.5753,-1.579,-1.5792,-1.5838,-1.5864,-1.5897,-1.5919,-1.5922,-1.5952,-1.595,-1.5965,-1.5973,-1.6016,-1.6032,-1.6013,-1.6085,-1.6071,-1.6076,-1.6072,-1.6077,-1.608,-1.6075,-1.6007,0,0,0,0,0,-1.5758,-1.5789,-1.582,-1.5858,-1.5871,-1.5893,-1.5911,-1.592,-1.5947,-1.5958,-1.598,-1.6007,-1.6038,-1.6059,-1.6089,-1.6136,-1.6143,-1.6156,-1.6159,-1.6162,-1.6166,-1.6192,-1.6198,-1.6137,-1.6137,-1.6137,0,0,-1.577,-1.5794,-1.5813,-1.5859,-1.588,-1.5911,-1.5902,-1.5936,-1.5959,-1.5964,-1.6005,-1.6022,-1.6053,-1.6098,-1.6119,-1.6113,-1.6185,-1.6166,-1.6168,-1.617,-1.6195,-1.6201,-1.6206,-1.6139,-1.6138,-1.6138,0,0,-1.5807,-1.5829,-1.5863,-1.5884,-1.5917,-1.5931,-1.5939,-1.5972,-1.5984,-1.6026,-1.603,-1.6059,-1.6112,-1.6134,-1.6152,-1.6199,-1.62,-1.6209,-1.6227,-1.6252,-1.6257,-1.6261,-1.6278,-1.6283,-1.6213,-1.6213,-1.6213,0,-1.5818,-1.5865,-1.588,-1.5913,-1.5933,-1.5939,-1.5973,-1.5994,-1.6034,-1.6048,-1.6041,-1.6109,-1.613,-1.618,-1.6192,-1.6207,-1.6216,-1.6204,-1.6255,-1.626,-1.6264,-1.628,-1.6286,-1.6213,-1.6213,-1.6213,-1.6213,0,-1.5876,-1.5909,-1.5932,-1.5972,-1.5995,-1.6028,-1.6048,-1.6069,-1.6076,-1.6091,-1.6134,-1.616,-1.6196,-1.6209,-1.6216,-1.626,-1.6256,-1.6252,-1.6239,-1.627,-1.6285,-1.6291,-1.6214,-1.6214,-1.6214,-1.6214,0,0,-1.5915,-1.5962,-1.5971,-1.5989,-1.6025,-1.6051,-1.6085,-1.6121,-1.6138,-1.6167,-1.6196,-1.6241,-1.6238,-1.6259,-1.6268,-1.629,-1.6326,-1.6284,-1.6285,-1.629,-1.6376,-1.6379,-1.6386,-1.6327,-1.6328,-1.6329,-1.6374,0,-1.5956,-1.6017,-1.6031,-1.6083,-1.6114,-1.6121,-1.615,-1.6176,-1.6192,-1.622,-1.6237,-1.6269,-1.6263,-1.6275,-1.6298,-1.6316,-1.6343,-1.6314,-1.6354,-1.6355,-1.6345,-1.6394,-1.6396,-1.6437,-1.638,-1.6381,-1.6381,0,-1.6012,-1.6041,-1.6097,-1.613,-1.6143,-1.6169,-1.6203,-1.623,-1.626,-1.6269,-1.6293,-1.63,-1.6336,-1.6322,-1.6372,-1.6351,-1.6369,-1.6381,-1.6383,-1.6387,-1.637,-1.6398,-1.645,-1.6456,-1.6391,-1.639,-1.639,0,-1.6034,-1.6088,-1.6128,-1.6143,-1.6183,-1.6201,-1.6218,-1.6247,-1.6267,-1.6297,-1.6311,-1.6344,-1.6362,-1.6388,-1.6404,-1.6392,-1.6453,-1.644,-1.6462,-1.6461,-1.6474,-1.6473,-1.6529,-1.6486,-1.6486,-1.6486,-1.6486,0,-1.6078,-1.6112,-1.6139,-1.6163,-1.6201,-1.6217,-1.6254,-1.6272,-1.6297,-1.6325,-1.6333,-1.636,-1.638,-1.6409,-1.6422,-1.6461,-1.6469,-1.6478,-1.6481,-1.6477,-1.6476,-1.6488,-1.6486,-1.6487,-1.6487,-1.6487,-1.6486,0,-1.6109,-1.6129,-1.6173,-1.6207,-1.6216,-1.6242,-1.6271,-1.6296,-1.6312,-1.6347,-1.6357,-1.6382,-1.6417,-1.6436,-1.6479,-1.6488,-1.6532,-1.6533,-1.6522,-1.6523,-1.6544,-1.6542,-1.661,-1.6619,-1.657,-1.6571,-1.6571,0,-1.6136,-1.6162,-1.6199,-1.6218,-1.6236,-1.6267,-1.6288,-1.6305,-1.6327,-1.6363,-1.6383,-1.6418,-1.6447,-1.6503,-1.6525,-1.6558,-1.6561,-1.6582,-1.6566,-1.6561,-1.6561,-1.6559,-1.6561,-1.6585,-1.6585,-1.6586,-1.6586,0,-1.6181,-1.6189,-1.6219,-1.6253,-1.6278,-1.6305,-1.6332,-1.6348,-1.637,-1.6393,-1.6429,-1.6452,-1.6497,-1.6531,-1.6567,-1.6585,-1.6589,-1.6591,-1.6598,-1.6594,-1.6586,-1.659,-1.6529,-1.6589,-1.6589,-1.6589,-1.6588,-1.6588,-1.621,-1.6234,-1.6263,-1.6297,-1.6319,-1.6344,-1.6369,-1.6388,-1.6418,-1.6456,-1.6464,-1.6502,-1.6531,-1.6579,-1.6598,-1.6628,-1.6624,-1.6634,-1.6636,-1.6639,-1.6639,-1.6582,-1.6635,-1.6635,-1.6635,-1.6635,-1.6635,0,-1.6256,-1.6275,-1.6306,-1.6343,-1.6369,-1.6372,-1.6402,-1.6424,-1.6457,-1.6484,-1.6512,-1.6553,-1.6588,-1.6613,-1.6648,-1.6667,-1.667,-1.6675,-1.6674,-1.6678,-1.6641,-1.6631,-1.6672,-1.6672,-1.6672,-1.6672,-1.6672,-1.6672,-1.6282,-1.6322,-1.6334,-1.6385,-1.6404,-1.6441,-1.6458,-1.6482,-1.6503,-1.6549,-1.6577,-1.6594,-1.662,-1.6657,-1.6689,-1.6695,-1.6708,-1.6713,-1.672,-1.6685,-1.6681,-1.6677,-1.6668,-1.6716,-1.6716,-1.6754,-1.6755,-1.6755]}]]